Погода в Денисовке

Казахстан     52°26′21″N   61°44′40″E
темп.,
°C
ветер,
м/с
пор.,
м/с
влажн.,
%
обл.,
%
осадки,
мм/ч
давл.,
гПа
погр.,
м
2 марта, вт
вт200:00−14ююз129686 0.1 101820
03:00−16ю239778 0.1 101720
06:00−15юз239781 0.1 101737
09:00−17юз349686 0.1 101660
12:00−16зюз589249 0.1 1016240
15:00−15юз69900 0.0 1014338
18:00−15юз6129032 0.0 1014366
21:00−16юз7149144 0.0 1013269
3 марта, ср
ср300:00−14юз7148970 0.0 1013346
03:00−12юз8158999 0.0 1011513
06:00−9юз81593100 0.2 1010594
09:00−6юз91593100 0.6 1008723
12:00−4юз91590100 0.9 1008914
15:00−2юз91493100 0.4 10071007
18:00−2юз91492100 0.8 1006921
21:00−2юз81494100 0.2 1005716
4 марта, чт
чт400:00−1юз71495100 0.6 1004701
03:00−2юз71295100 0.4 1002551
06:00−3юз61295100 0.9 1002484
09:00−3юз51195100 0.3 1002393
12:00−3з61088100 0.6 1004623
15:00−5з6108555 0.0 1005635
18:00−6з5128528 0.0 1007425
21:00−9зюз714830 0.0 1010313
5 марта, пт
пт500:00−11зюз714870 0.0 1012333
03:00−10юз8168973 0.0 1012485
06:00−7юз10188686 0.0 1011768
09:00−4юз122085100 0.0 1009852
12:00−3юз132184100 0.0 1010880
15:00−1юз122082100 0.0 10091045
18:00−1юз122084100 0.0 10101116
21:00−1юз101887100 0.1 1011991
6 марта, сб
сб600:00−2юз9178698 0.1 1012781
03:000зюз9168799 0.0 1012900
06:00−2зюз6129596 0.1 1014349
09:00−6з468697 0.1 101596
12:00−4з238898 0.1 1016135
15:00−1ююз3592100 0.0 1016379
18:000ююз61192100 0.3 1013623
21:000ююз81592100 0.2 1010794